Location: Boullarre
(49.1305°N, 3.0047°E)
Time: 08:23:41
(UTC+00:00)

Daily predictions for brighter satellites

Satellite Brightness Start Highest point End
(mag) Time Altitude Azimuth Time Altitude Azimuth Time Altitude Azimuth
Cosmos 1536 Rocket 3.6 18:16:23 10° N 18:20:45 85° W 18:25:04 10° S
COSMOS 2428 2.8 18:15:11 10° NNW 18:20:55 89° E 18:26:36 10° SSE
NOAA 11 4.3 18:16:08 10° SSE 18:21:32 62° ENE 18:26:58 10° N
Cosmos 2360 Rocket 4.0 18:16:52 10° NW 18:21:56 35° WSW 18:26:59 10° S
Cosmos 1743 4.0 18:18:22 10° SSW 18:22:05 47° WNW 18:25:52 10° N
NOSS 0 Rocket 4.1 18:17:12 10° NNW 18:23:23 63° NE 18:29:32 10° SE
Meteor 2-15 4.5 18:17:43 10° S 18:23:46 65° E 18:29:52 10° NNE
Cosmos 1461 2.7 18:21:27 10° SSW 18:25:26 76° SE 18:29:24 10° NE
SL-8 R/B 3.8 18:21:19 10° WSW 18:26:04 68° SSE 18:30:52 10° E
SJ-6B 4.1 18:23:02 10° ESE 18:26:18 24° ENE 18:29:35 10° NNE
NOSS 3-4 (A) 3.9 18:21:25 10° NW 18:28:21 80° NE 18:35:59 10° SE
NOSS 3-4 (C) 3.9 18:21:31 10° NW 18:28:27 80° NE 18:36:05 10° SE
COSMOS 2455 4.0 18:23:03 10° NW 18:28:47 47° WSW 18:34:29 10° S
USA 32 4.4 18:24:00 10° N 18:29:15 74° W 18:34:28 10° S
COBE Rocket 4.4 18:24:16 10° N 18:29:17 72° WNW 18:34:23 10° SSW
Cosmos 1544 3.3 18:25:54 10° SSE 18:29:21 46° E 18:32:50 10° NNE
Cosmos 389 Rocket 3.5 18:26:40 10° NNE 18:29:36 25° ENE 18:32:30 10° SE
YAOGAN 1 3.3 18:25:26 10° S 18:29:43 60° W 18:34:01 10° NNW
Cosmos 614 Rocket 4.5 18:25:59 10° NNW 18:30:57 42° ENE 18:35:52 10° SE
Aureole 1 Rocket 3.6 18:26:13 10° NNW 18:31:31 69° WSW 18:35:29 10° SSE
DMSP B5D1-3 4.5 18:27:52 10° NNE 18:32:58 66° ESE 18:38:01 10° S
Ariane Rocket 3.0 18:28:16 10° SSE 18:33:19 76° ENE 18:38:25 10° NNW
CZ-2D R/B 3.2 18:30:28 10° SSE 18:34:15 86° ENE 18:38:05 10° NNW
MOS 1 4.4 18:33:05 10° SE 18:38:39 59° ENE 18:44:14 10° N
NOSS 3-3 (A) 4.3 18:32:42 10° SW 18:38:43 76° NW 18:45:34 10° NE
NOSS 3-3 (C) 4.2 18:32:48 10° SW 18:38:49 77° NW 18:45:40 10° NE
Cosmos 2227 Rocket 3.3 18:35:28 10° SSE 18:39:43 22° ESE 18:44:00 10° NE
ARGOS 4.1 18:35:45 10° ESE 18:40:19 29° ENE 18:44:54 10° N
Nadezhda 1 Rocket 3.9 18:36:14 10° S 18:42:14 69° E 18:48:19 10° NNE
Cosmos 2219 3.7 18:37:08 10° S 18:42:24 38° ESE 18:47:41 10° NE
HJ-1C 3.3 18:39:08 10° SSE 18:42:29 68° ENE 18:45:52 10° N
Cosmos 407 Rocket 3.7 18:37:35 10° NNW 18:42:37 53° ENE 18:47:36 10° SE
GEOS 3 Rocket 3.6 18:38:18 10° SE 18:43:25 84° NE 18:48:35 10° NW
Cosmos 1939 Rocket 2.8 18:40:16 10° SSE 18:44:07 85° WSW 18:48:01 10° NNW
Cosmos 2056 Rocket 4.4 18:39:37 10° SSE 18:44:13 29° E 18:48:49 10° NE
USA 186 2.7 18:41:21 10° SE 18:44:26 33° ENE 18:47:34 10° N
Meteor 2-9 Rocket 4.4 18:39:04 10° SSW 18:44:49 80° WNW 18:50:27 10° N
ADEOS Rocket 4.3 18:38:34 10° NNE 18:44:50 29° E 18:51:19 10° SSE
Lacrosse 5 rocket 2.8 18:43:19 10° SSE 18:45:19 14° SE 18:46:01 14° ESE
Okean 1-7 Rocket 4.2 18:42:30 10° N 18:46:39 37° ENE 18:50:48 10° SE
Cosmos 1295 Rocket 4.5 18:42:15 10° N 18:48:24 63° ENE 18:54:27 10° SSE
COSMO-SKYMED 1 4.3 18:45:46 10° N 18:49:48 38° WNW 18:53:49 10° SW
Cosmos 2297 Rocket 3.0 18:45:26 10° SSE 18:50:09 28° ESE 18:54:53 10° NE
USA 234 3.9 18:46:31 10° ENE 18:52:52 55° NNW 18:59:15 10° W
Timation 2 Rocket 4.4 18:53:21 10° SW 18:59:52 68° WNW 19:06:09 10° NNE
Meteor 1-4 Rocket 2.9 18:56:42 10° N 19:00:07 42° ENE 19:02:40 16° SE
Meteor 1-15 Rocket 4.5 18:55:01 10° SSE 19:00:33 49° E 19:06:13 10° NNE
Cosmos 405 Rocket 3.2 18:59:20 10° SSE 19:02:40 33° E 19:06:02 10° NNE
Cosmos 1140 Rocket 3.6 18:59:11 10° NNW 19:04:17 54° ENE 19:08:26 15° SE
Cosmos 1437 Rocket 3.8 19:01:11 10° N 19:04:25 26° ENE 19:05:41 21° E
Cosmos 1954 Rocket 4.4 18:59:53 10° NNW 19:04:53 43° ENE 19:08:25 18° ESE
CZ-2C R/B 4.0 19:04:56 18° ESE 19:08:08 32° ENE 19:13:00 10° N
GENESIS II 4.4 19:04:46 10° NW 19:08:53 63° NE 19:11:21 22° ESE
ASTEX 1 3.3 19:04:31 10° N 19:09:25 70° E 19:14:17 10° S
ATLAS 2AS CENTAUR R/B 3.7 19:04:21 10° NW 19:11:40 49° WSW 19:18:24 10° SSE
In-Cosmos 22 4.1 19:06:38 10° N 19:12:00 70° ENE 19:17:28 10° SSE
Cosmos 2333 Rocket 3.6 19:08:52 10° NW 19:14:06 39° WSW 19:19:21 10° S
EO 1 Delta rocket 4.4 19:07:37 10° SSE 19:14:12 86° E 19:19:28 10° N
Cosmos 2084 Rocket 4.2 19:10:26 10° S 19:14:26 33° ESE 19:17:39 14° ENE
Cosmos 1544 Rocket 4.3 19:11:23 14° SSE 19:14:35 32° E 19:18:33 10° NNE
Cosmos 1455 Rocket 3.5 19:10:52 10° SSE 19:14:58 38° E 19:19:07 10° NNE
SPOT 3 Rocket 3.5 19:11:08 10° SSE 19:16:15 72° ENE 19:21:25 10° NNW
Meteor 1-24 Rocket 4.3 19:12:12 10° N 19:17:40 41° ENE 19:21:13 21° SE
Cosmos 1441 Rocket 4.3 19:14:20 10° SSW 19:18:00 47° WNW 19:21:40 10° N
Cosmos 2237 Rocket 2.3 19:13:20 10° NNW 19:19:05 82° WSW 19:24:31 11° SSE
Cosmos 1674 3.3 19:18:33 10° N 19:21:59 34° ENE 19:22:42 31° E
ERBS 2.7 19:19:11 10° NW 19:22:31 49° NNE 19:23:37 34° E
SJ-11-01 4.4 19:18:16 10° S 19:23:02 80° WSW 19:27:48 10° NNW
ISS -2.9 19:23:34 10° SSW 19:26:21 32° SSE 19:26:21 32° SSE
Cosmos 2341 Rocket 4.0 19:20:48 10° N 19:27:05 86° W 19:33:18 10° S
Cosmos 1371 Rocket 3.9 19:21:54 10° SSW 19:27:11 73° ESE 19:32:34 10° NNE
Cosmos 1980 4.0 19:23:04 10° NNW 19:28:42 66° WSW 19:34:07 11° SSE
Cosmos 2181 Rocket 4.0 19:23:19 10° S 19:29:28 65° E 19:35:46 10° NNE
RESURS DK-1 3.7 19:26:34 10° N 19:30:00 24° NE 19:30:49 23° ENE
Cosmos 1805 3.9 19:30:39 33° E 19:30:39 33° E 19:34:05 10° NNE
Cosmos 1626 Rocket 4.1 19:28:28 10° N 19:32:30 37° ENE 19:33:19 34° E
CZ-2C R/B 3.6 19:30:24 10° NNE 19:34:53 86° WNW 19:39:19 10° SSW
Cosmos 676 Rocket 3.9 19:32:51 10° NNW 19:38:09 81° ENE 19:41:12 26° SSE
Cosmos 1452 Rocket 4.2 19:38:51 31° E 19:38:51 31° E 19:43:07 10° NE
Meteor 2-17 Rocket 4.5 19:37:38 10° NNW 19:43:45 80° W 19:49:47 10° S
Cosmos 2218 Rocket 4.0 19:37:26 10° N 19:43:51 79° ENE 19:49:01 16° SSE
Meteor 2-5 Rocket 3.7 19:38:20 10° N 19:44:11 84° ENE 19:48:44 18° SSE
Resurs 1-3 3.5 19:42:46 34° SSE 19:44:36 71° ENE 19:48:59 10° N
Cosmos 2366 rocket 4.0 19:39:27 10° N 19:45:52 77° E 19:50:40 19° SSE
H-2A R/B 1.9 19:42:42 19° SSE 19:46:19 86° WSW 19:51:25 10° NNW
Cosmos 864 Rocket 4.4 19:41:48 10° N 19:48:03 76° E 19:52:28 21° SSE
KORONAS-FOTON 3.7 19:45:20 10° N 19:49:06 61° ENE 19:49:22 59° E
SL-16 R/B 2.1 19:44:54 10° NNW 19:50:36 74° ENE 19:52:58 36° SE
Cosmos 1602 Rocket 3.7 19:49:28 10° N 19:53:42 49° ENE 19:53:55 48° E
Cosmos 1821 Rocket 4.5 19:48:16 10° N 19:53:59 38° ENE 19:55:11 35° E
Terra 3.9 19:54:27 13° NE 19:54:27 13° NE 19:56:10 10° NNE
Resurs 01 Rocket 1.5 19:53:03 47° SE 19:54:12 68° ENE 19:58:39 10° N
SL-8 Rocket 4.1 19:49:11 10° NNW 19:55:23 75° W 20:01:19 11° S
Meteor 1-22 Rocket 4.4 19:51:41 14° S 19:56:55 60° E 20:02:56 10° NNE
CZ-4C R/B 4.3 19:54:47 10° NW 19:59:47 24° N 20:05:27 10° ENE
CZ-2C R/B 3.9 19:55:35 10° NNE 19:58:59 26° ENE 19:58:59 26° ENE
SJ-6B 4.2 19:57:07 11° SSW 20:00:46 39° W 20:04:37 10° NNW
SL-08 RB Rocket 3.7 20:01:12 38° S 20:03:02 85° WSW 20:07:44 10° NNW
SL-14 R/B 4.3 20:02:40 10° N 20:05:29 34° NE 20:05:29 34° NE
Cosmos 2082 3.6 20:01:17 10° SSW 20:06:56 65° ESE 20:12:37 10° NNE
SL-8 R/B 3.6 20:03:46 10° W 20:08:35 82° S 20:09:16 65° ESE
Cosmos 1850 Rocket 3.9 20:05:31 10° NNW 20:10:41 64° ENE 20:11:24 57° ESE
Cosmos 1626 3.8 20:09:52 10° N 20:11:44 24° NNE 20:11:44 24° NNE
MetOp-B 4.2 20:12:35 53° ESE 20:13:23 60° ENE 20:18:40 10° N
Cosmos 1766 3.4 20:15:15 65° SW 20:15:40 73° W 20:19:35 10° N
ARGOS 3.9 20:16:39 19° SSW 20:20:21 50° W 20:25:36 10° NNW
Cosmos 2227 Rocket 2.5 20:17:37 10° SW 20:23:15 68° WNW 20:28:56 10° NNE
Lacrosse 5 rocket 2.8 20:20:11 10° SW 20:21:45 24° SW 20:21:45 24° SW
Cosmos 2056 Rocket 4.5 20:20:53 10° SW 20:26:07 49° WNW 20:31:23 10° NNE
Cosmos 2219 4.4 20:21:03 10° SW 20:26:31 43° NW 20:32:00 10° NNE
ADEOS Rocket 3.7 20:23:31 10° NNE 20:30:48 73° WNW 20:38:30 10° SSW
Cosmos 1420 Rocket 4.0 20:25:43 10° SSW 20:31:02 86° WNW 20:36:25 10° NNE
Cosmos 2297 Rocket 2.8 20:28:19 10° SW 20:33:52 56° NW 20:39:27 10° NNE
BREEZE M DEB (TANK) 2.8 20:31:15 10° W 20:33:28 61° W 20:33:28 61° W
USA 234 4.1 20:31:34 23° ENE 20:35:17 45° N 20:41:27 10° WNW
ERS-1 Rocket 3.6 20:40:43 44° NE 20:40:43 44° NE 20:44:43 10° N
Cosmos 1437 Rocket 4.5 20:37:24 10° NNW 20:40:38 27° W 20:41:07 26° WSW
Cosmos 1741 Rocket 4.0 20:35:35 10° NNW 20:40:56 79° WSW 20:41:12 77° SSW
Meteor 2-12 Rocket 4.2 20:37:54 10° N 20:44:02 81° E 20:44:34 74° SE
SPOT 1/Viking Rocket 3.9 20:46:26 52° NNE 20:46:26 52° NNE 20:50:44 10° N
CZ-2C R/B 4.0 20:46:00 33° SW 20:47:48 45° W 20:53:08 10° NNW
Spot 2 Rocket 3.6 20:49:00 66° WSW 20:49:09 66° WSW 20:54:12 10° NNW
DMSP B5D2-2 4.1 20:45:41 10° NNE 20:51:00 76° WNW 20:51:28 70° WSW
Cosmos 1943 3.6 20:46:44 10° NNW 20:51:54 52° NE 20:51:54 52° NE
Meteor 1-21 Rocket 4.2 20:47:38 10° N 20:53:21 75° NE 20:53:21 75° NE
Cosmos 1934 Rocket 4.0 20:49:04 10° N 20:54:51 65° ENE 20:54:51 65° ENE
SPOT 5 3.9 21:07:32 41° N 21:07:32 41° N 21:10:57 10° N
USA 245 4.4 21:07:50 71° WSW 21:08:02 72° WSW 21:13:43 10° NNW
RESURS DK-1 4.1 21:04:17 10° NW 21:06:43 31° WNW 21:06:43 31° WNW
Nadezhda 3 Rocket 4.4 21:23:40 54° WSW 21:24:27 58° WNW 21:30:37 10° N
Cosmos 1603 4.3 21:24:25 10° NNW 21:28:57 54° WNW 21:28:57 54° WNW
Terra 3.4 21:33:21 31° N 21:33:21 31° N 21:35:50 10° NNW
Resurs 01 Rocket 4.1 21:30:38 15° W 21:31:10 15° W 21:33:46 10° NW
SL-16 R/B 4.1 21:30:02 10° NW 21:34:07 21° W 21:34:52 20° WSW
Cosmos 1605 Rocket 4.3 21:30:25 10° N 21:35:46 64° N 21:35:46 64° N
CZ-2C R/B 3.5 21:35:32 10° N 21:40:29 49° NW 21:40:29 49° NW
CZ-4C R/B 3.6 21:43:47 10° NW 21:50:08 41° NNE 21:50:38 41° NE
USA 234 3.7 22:18:55 56° NNW 22:18:55 56° NNW 22:24:15 10° NW
Cosmos 2263 Rocket 4.1 22:33:29 25° NNE 22:33:29 25° NNE 22:35:48 10° NNE
CZ-4C R/B 4.0 23:32:13 10° NW 23:35:47 34° NW 23:35:47 34° NW
SL-16 R/B 4.5 23:39:41 20° NE 23:39:50 20° NE 23:44:11 10° N
Cosmos 2082 Rocket 4.2 23:44:50 10° NNW 23:47:21 25° N 23:47:21 25° N
